Flag for Germany Weather past 2 weeks in Aurich, Lower Saxony, Germany

Now
30 °F

Chilly.


Feels Like: 23 °F
Forecast: 39 / 46 °F
Wind: 8 mph from South

Location: Wittmundhaven

Current Time: Feb 28, 2015 at 8:21:11 AM

Latest Report: Feb 28, 2015 at 7:20 AM


Visibility: 5 mi

Pressure: 30.07 "Hg

Humidity: 93%

Dew point: 28 °F

Location of AurichLocation

Historic Weather in Aurich — Graph

°F

Aurich temperature yesterday

Maximum temperature yesterday: 43 °F (at 12:20 AM)
Minimum temperature yesterday: 36 °F (at 10:20 PM)
Average temperature yesterday: 41 °F

Past Weeks' High & Low Weather Summary

 TemperatureHumidityPressure
High48 °F (Feb 14, 2:20 PM)100% (Feb 13, 6:20 AM)30.69 "Hg (Feb 13, 6:20 AM)
Low25 °F (Feb 17, 6:20 AM)61% (Feb 22, 3:20 PM)29.21 "Hg (Feb 23, 6:20 AM)
Average37 °F87%29.92 "Hg
* Reported Feb 13 6:20 AM — Feb 28 6:20 AM, Aurich, Weather by CustomWeather, © 2015

Note: Actual official high and low records may vary slightly from our data, if they occured in-between our weather recording intervals... More about our weather records

Advertising

Aurich weather history for previous 24 hours

 ConditionsComfort  
Time TempWeatherWind HumidityBarometerVisibility
6:20 AM
Sat, Feb 28
30 °FChilly.6 mph93%30.07 "HgN/A
5:20 AM30 °FChilly.7 mph93%30.07 "HgN/A
4:20 AM30 °FChilly.6 mph93%30.07 "HgN/A
3:20 AM30 °FChilly.3 mph100%30.09 "HgN/A
2:20 AM32 °FChilly.3 mph93%30.09 "HgN/A
1:20 AM32 °FChilly.5 mph100%30.09 "HgN/A
12:20 AM34 °FPassing clouds.3 mph93%30.07 "HgN/A
11:20 PM
Fri, Feb 27
36 °FPassing clouds.5 mph87%30.09 "HgN/A
10:20 PM36 °FPassing clouds.6 mph93%30.09 "HgN/A
9:20 PM37 °FPassing clouds.7 mph87%30.09 "HgN/A
8:20 PM37 °FPassing clouds.6 mph87%30.07 "HgN/A
7:20 PM37 °FPassing clouds.6 mph87%30.07 "HgN/A
6:20 PM39 °FPassing clouds.6 mph81%30.04 "HgN/A
5:20 PM41 °FPassing clouds.10 mph70%30.01 "HgN/A
4:20 PM43 °FScattered clouds.14 mph66%30.01 "HgN/A
3:20 PM43 °FBroken clouds.13 mph61%30.01 "HgN/A
2:20 PM43 °FBroken clouds.13 mph71%29.98 "HgN/A
1:20 PM43 °FBroken clouds.16 mph71%29.95 "HgN/A
12:20 PM43 °FBroken clouds.16 mph76%29.95 "HgN/A
11:20 AM43 °FBroken clouds.14 mph81%29.92 "HgN/A
10:20 AM43 °FPartly sunny.12 mph81%29.89 "HgN/A
9:20 AM41 °FBroken clouds.12 mph87%29.89 "HgN/A
8:20 AM39 °FBroken clouds.10 mph93%29.86 "HgN/A
Weather by CustomWeather, © 2015

See weather overviewHow to use our weather pages